This is the latest recevied weather packets stored in our database for station/object N1SU-13. If no packets are shown the sender has not sent any weather packets the latest 10 day(s).
| Time | Temp. | Humidity | Pressure | Rain* | Wind** | Luminosity | Snow |
|---|---|---|---|---|---|---|---|
| 1777240935 | 17.22° C | 33% | 1007.9 hPa | - | - | - | - |
| 1777240341 | 17.22° C | 33% | 1007.8 hPa | - | - | - | - |
| 1777239717 | 17.22° C | 34% | 1007.8 hPa | - | - | - | - |
| 1777239015 | 16.67° C | 35% | 1007.9 hPa | - | - | - | - |
| 1777238342 | 16.67° C | 34% | 1007.9 hPa | - | - | - | - |
| 1777237761 | 16.11° C | 35% | 1008 hPa | - | - | - | - |
| 1777237156 | 16.11° C | 35% | 1007.9 hPa | - | - | - | - |
| 1777236497 | 16.11° C | 36% | 1007.9 hPa | - | - | - | - |
| 1777235880 | 15.56° C | 36% | 1008 hPa | - | - | - | - |
| 1777235308 | 15.56° C | 38% | 1008 hPa | - | - | - | - |
| 1777234715 | 15.56° C | 35% | 1008.1 hPa | - | - | - | - |
| 1777234024 | 15.56° C | 36% | 1008.2 hPa | - | - | - | - |
| 1777233415 | 15° C | 37% | 1008.2 hPa | - | - | - | - |
| 1777232766 | 15° C | 37% | 1008.3 hPa | - | - | - | - |
| 1777232153 | 15° C | 38% | 1008.4 hPa | - | - | - | - |
| 1777231454 | 14.44° C | 39% | 1008.4 hPa | - | - | - | - |
| 1777230827 | 14.44° C | 38% | 1008.4 hPa | - | - | - | - |
| 1777230152 | 13.89° C | 38% | 1008.4 hPa | - | - | - | - |
| 1777229590 | 13.89° C | 38% | 1008.4 hPa | - | - | - | - |
| 1777228941 | 13.33° C | 36% | 1008.5 hPa | - | - | - | - |
| 1777228336 | 13.33° C | 38% | 1008.6 hPa | - | - | - | - |
| 1777227714 | 12.78° C | 37% | 1008.6 hPa | - | - | - | - |
| 1777227093 | 12.78° C | 36% | 1008.6 hPa | - | - | - | - |
| 1777226395 | 12.22° C | 39% | 1008.6 hPa | - | - | - | - |
| 1777225754 | 11.67° C | 44% | 1008.7 hPa | - | - | - | - |
* Rain since midnight (hover to see other rain measurements)
** Current wind speed in m/s (hover to see current wind gust speed)